Flag for Romania Weather past 2 weeks in Bucharest, Romania

Now
66 °F

Passing clouds.


Feels Like: 66 °F
Forecast: 59 / 80 °F
Wind: 6 mph from West

Location: Bucharest / Imh

Current Time: Aug 28, 2014 at 8:48:26 AM

Latest Report: Aug 28, 2014 at 8:00 AM


Visibility: 6 mi

Pressure: 29.89 "Hg

Humidity: 94%

Dew point: 64 °F

Location of BucharestLocation

Historic Weather in Bucharest — Graph

°F

Bucharest temperature yesterday

Maximum temperature yesterday: 90 °F (at 3:00 PM)
Minimum temperature yesterday: 63 °F (at 5:30 AM)
Average temperature yesterday: 77 °F

Past Weeks' High & Low Weather Summary

 TemperatureHumidityPressure
High95 °F (Aug 13, 3:30 PM)100% (Aug 18, 4:00 AM)30.09 "Hg (Aug 18, 4:00 AM)
Low57 °F (Aug 18, 4:00 AM)16% (Aug 14, 4:00 PM)29.74 "Hg (Aug 15, 7:00 PM)
Average75 °F60%29.93 "Hg
* Reported Aug 13 7:00 AM — Aug 28 7:30 AM, Bucharest, Weather by CustomWeather, © 2014

Note: Actual official high and low records may vary slightly from our data, if they occured in-between our weather recording intervals... More about our weather records

Advertising

Bucharest weather history for previous 24 hours

 ConditionsComfort  
Time TempWeatherWind HumidityBarometerVisibility
7:30 AM
Aug 28
66 °FPassing clouds.7 mph94%29.86 "HgN/A
7:00 AM64 °FFog.5 mph94%29.86 "Hg5 mi
6:30 AM64 °FPassing clouds.6 mph100%29.86 "HgN/A
5:30 AM66 °FPassing clouds.7 mph94%29.86 "HgN/A
5:00 AM66 °FPassing clouds.9 mph94%29.83 "HgN/A
4:30 AM68 °FPassing clouds.8 mph94%29.83 "HgN/A
4:00 AM68 °FPassing clouds.6 mph94%29.83 "HgN/A
3:30 AM68 °FClear.5 mph94%29.83 "Hg10 mi
3:00 AM70 °FClear.2 mph94%29.83 "Hg10 mi
2:30 AM68 °FSprinkles. Passing clouds.5 mph100%29.83 "HgN/A
2:00 AM68 °FSprinkles. Fog.1 mph100%29.83 "Hg3 mi
1:30 AM70 °FSprinkles. Passing clouds.2 mph88%29.80 "Hg6 mi
1:00 AM72 °FRain showers. Passing clouds.8 mph83%29.80 "Hg3 mi
12:30 AM73 °FPassing clouds.10 mph74%29.80 "HgN/A
12:00 AM75 °FPassing clouds.7 mph65%29.77 "HgN/A
11:30 PM
Aug 27
75 °FLight rain. Clear.7 mph65%29.77 "HgN/A
11:00 PM75 °FClear.5 mph61%29.77 "Hg10 mi
10:30 PM77 °FClear.5 mph57%29.77 "Hg10 mi
10:00 PM77 °FClear.5 mph54%29.74 "Hg10 mi
9:30 PM79 °FPassing clouds.5 mph51%29.74 "HgN/A
8:30 PM81 °FPassing clouds.5 mph48%29.74 "HgN/A
8:00 PM82 °FPassing clouds.5 mph45%29.74 "HgN/A
7:30 PM84 °FPassing clouds.5 mph40%29.74 "HgN/A
7:00 PM86 °FPassing clouds.7 mph38%29.74 "HgN/A
6:00 PM88 °FPassing clouds.10 mph33%29.74 "HgN/A
5:30 PM88 °FPassing clouds.12 mph31%29.74 "HgN/A
5:00 PM88 °FPassing clouds.12 mph31%29.74 "HgN/A
4:30 PM90 °FPassing clouds.13 mph31%29.74 "HgN/A
4:00 PM90 °FPassing clouds.8 mph29%29.74 "HgN/A
3:30 PM88 °FPassing clouds.10 mph33%29.77 "HgN/A
3:00 PM90 °FPassing clouds.8 mph31%29.77 "HgN/A
2:30 PM88 °FPassing clouds.10 mph35%29.77 "HgN/A
2:00 PM88 °FPassing clouds.9 mph35%29.80 "HgN/A
1:30 PM86 °FPassing clouds.8 mph33%29.80 "HgN/A
1:00 PM86 °FPassing clouds.8 mph33%29.80 "HgN/A
12:30 PM84 °FSunny.5 mph37%29.80 "Hg10 mi
12:00 PM82 °FPassing clouds.5 mph42%29.83 "HgN/A
11:30 AM82 °FPassing clouds.5 mph45%29.83 "HgN/A
11:00 AM81 °FSunny.2 mph48%29.83 "Hg10 mi
10:30 AM79 °FSunny.3 mph48%29.83 "Hg10 mi
10:00 AM77 °FSunny.1 mph51%29.83 "Hg10 mi
9:30 AM75 °FSunny.No wind57%29.86 "Hg10 mi
9:00 AM72 °FSunny.1 mph69%29.86 "Hg10 mi
8:30 AM70 °FSunny.No wind73%29.86 "Hg10 mi
8:00 AM68 °FClear.No wind78%29.86 "Hg5 mi
Weather by CustomWeather, © 2014

See weather overviewHow to use our weather pages